Location: West Chester
(39.9610°N, 75.6060°W)
Time: 19:51:19
(UTC-04:00)

ARIANE 6 FM1 Upper Stage - Pass Details

Date: 21 September 2024
Orbit: 563 x 594 km, 62.0° (Epoch: 11 October)

Event Time Altitude Azimuth Distance (km) Brightness Sun altitude
Exits shadow 05:03:38 18° 324° (NW) 1,506 4.7 -20.7°
Maximum altitude 05:06:55 90° 258° (WSW) 603 2.7 -20.1°
Drops below altitude 10° 05:11:18 10° 146° (SE) 1,928 5.6 -19.3°
Sets 05:13:33 0° 146° (SE) 2,825 6.5 -18.9°
